Location: Bergnershof
(48.9468°N, 10.9431°E)
Time: 11:39:24
(UTC+00:00)

Cosmos 1943 Rocket - Pass Details

Date: 03 March 2021
Orbit: 811 x 844 km, 71.0° (Epoch: 13 April)

Event Time Altitude Azimuth Distance (km) Brightness Sun altitude
Rises 20:43:02 0° 334° (NNW) 3,416 6.2 -35.2°
Reaches altitude 10° 20:45:37 10° 340° (NNW) 2,476 5.2 -35.5°
Enters shadow 20:48:16 26° 356° (N) 1,603 3.9 -35.8°
